Weather History for Evergreen, AL

Change the Weather History Date:

Thursday, March 28, 2013

  Actual Average (KPRN) Record (KPRN)
Temperature  
Mean Temperature 52 °F -  
Max Temperature 72 °F 73 °F 87 °F (1989)
Min Temperature 32 °F 46 °F 29 °F (1978)
Degree Days  
Heating Degree Days 14    
Growing Degree Days 2 (Base 50)    
Moisture  
Dew Point 31 °F    
Average Humidity 54    
Maximum Humidity 89    
Minimum Humidity 17    
Precipitation  
Precipitation 0.00 in - - ()
Sea Level Pressure  
Sea Level Pressure 30.32 in    
Wind  
Wind Speed 1 mph (NW)    
Max Wind Speed 9 mph    
Max Gust Speed -    
Visibility 10 miles    
Events      
Averages and records for this station are not official NWS values.
T = Trace of Precipitation, MM = Missing Value Source: NWS Daily Summary

Daily Weather History Graph

Daily Weather History Graph

Search for Another Location

Airport:

Trip Planner

Search our weather history database for the weather conditions in past years. The results will help you decide how hot, cold, wet, or windy it might be!

Date:

Astronomy

Mar. 28, 2013 Rise Set
Actual Time 6:41 AM CDT 7:05 PM CDT
Civil Twilight 6:17 AM CDT 7:29 PM CDT
Nautical Twilight 5:48 AM CDT 7:58 PM CDT
Astronomical Twilight 5:19 AM CDT 8:27 PM CDT
Moon 8:46 PM CDT (3/28) 7:16 AM CDT (3/28)
Length of Visible Light 13h 12m
Length of Day
12h 23m
Full, 98% of the Moon is Illuminated
Mar 28
Full
Apr 2
Last Quarter
Apr 10
New
Apr 18
First Quarter
Apr 25
Full

Hourly Weather History & Observations

Time (CDT) Temp. Dew Point Humidity Pressure Visibility Wind Dir Wind Speed Gust Speed Precip Events Conditions
12:53 AM 36.0 °F 32.0 °F 86% 30.32 in 10.0 mi Calm Calm - N/A   Clear
1:53 AM 35.1 °F 30.9 °F 85% 30.32 in 10.0 mi Calm Calm - N/A   Clear
2:53 AM 34.0 °F 30.9 °F 89% 30.32 in 9.0 mi Calm Calm - N/A   Clear
3:53 AM 33.1 °F 28.9 °F 85% 30.32 in 9.0 mi Calm Calm - N/A   Clear
4:53 AM 32.0 °F 28.9 °F 88% 30.33 in 9.0 mi Calm Calm - N/A   Clear
5:53 AM 32.0 °F 28.0 °F 85% 30.35 in 8.0 mi Calm Calm - N/A   Clear
6:53 AM 32.0 °F 28.9 °F 88% 30.36 in 7.0 mi Calm Calm - N/A   Clear
7:53 AM 37.9 °F 35.1 °F 89% 30.37 in 10.0 mi Calm Calm - N/A   Clear
8:53 AM 48.9 °F 35.1 °F 59% 30.38 in 10.0 mi NE 3.5 mph - N/A   Clear
9:53 AM 57.0 °F 32.0 °F 39% 30.38 in 10.0 mi Variable 3.5 mph - N/A   Clear
10:53 AM 62.1 °F 28.9 °F 29% 30.38 in 10.0 mi North 3.5 mph - N/A   Clear
11:53 AM 64.0 °F 28.0 °F 26% 30.36 in 10.0 mi Variable 5.8 mph - N/A   Unknown
12:53 PM 66.0 °F 28.9 °F 25% 30.34 in 10.0 mi Calm Calm - N/A   Clear
1:53 PM 68.0 °F 28.9 °F 23% 30.31 in 10.0 mi Variable 4.6 mph - N/A   Clear
2:53 PM 70.0 °F 28.0 °F 21% 30.28 in 10.0 mi North 4.6 mph - N/A   Clear
3:53 PM 71.1 °F 28.9 °F 21% 30.25 in 10.0 mi NW 5.8 mph - N/A   Clear
4:53 PM 71.1 °F 24.1 °F 17% 30.25 in 10.0 mi Calm Calm - N/A   Clear
5:53 PM 70.0 °F 25.0 °F 18% 30.25 in 10.0 mi West 3.5 mph - N/A   Clear
6:53 PM 66.0 °F 26.1 °F 22% 30.26 in 10.0 mi Calm Calm - N/A   Clear
7:53 PM 55.0 °F 39.0 °F 55% 30.28 in 10.0 mi Calm Calm - N/A   Clear
8:53 PM 50.0 °F 39.9 °F 68% 30.29 in 10.0 mi Calm Calm - N/A   Clear
9:53 PM 46.9 °F 39.0 °F 74% 30.31 in 10.0 mi South 9.2 mph - N/A   Clear
10:53 PM 50.0 °F 36.0 °F 59% 30.32 in 10.0 mi West 3.5 mph - N/A   Clear
11:53 PM 52.0 °F 35.1 °F 53% 30.32 in 10.0 mi Calm Calm - N/A   Clear